Temperature
9 8 8 8 9 10 10 10 10 11 11 11 11 11 11 12 12 11 12 12 13 13 14 14 14 14 13 13 13 13 12 12 12 12 12 12 12 11 11 11 11 11 11 10
7 7 8 9 9 10 10 10 10 11 11 11 10 10 10 10 10 11 11 12 13 13 13 13 13 13 13 13 13 12 12 12 12 12 12 12 11 11 11 11 10 10 10 10
7 8 9 10 9 10 9 9 9 10 11 11 11 10 10 10 11 11 12 12 13 13 13 13 13 13 13 13 13 12 12 12 12 11 11 11 11 10 10 10 10 10 10 9
7 8 9 9 9 9 9 10 10 10 9 8 9 8 9 9 9 9 10 11 12 12 13 13 13 12 12 12 12 12 12 11 11 11 11 11 11 10 10 10 10 9 9 9
7 8 9 9 9 10 9 10 10 9 8 8 8 8 8 8 9 9 9 10 11 12 12 12 12 12 12 12 12 12 11 11 11 11 11 10 10 10 10 10 9 9 9 9
7 8 9 9 10 10 10 9 8 7 7 7 7 7 8 7 9 9 9 10 11 11 12 12 12 12 12 12 11 11 11 11 11 10 10 10 10 10 9 9 9 9 8 8
7 8 8 9 9 9 9 7 6 6 6 6 7 7 8 8 8 9 8 9 10 11 11 11 11 11 11 11 11 11 11 10 10 10 10 9 9 9 9 9 8 8 8 8
5 6 7 8 8 8 8 7 6 6 6 6 7 7 7 8 8 9 9 10 10 10 10 10 11 11 11 11 10 10 10 10 10 9 9 9 9 8 8 8 8 7 7 7
5 6 7 8 8 8 7 7 7 6 5 6 6 6 7 8 7 7 8 8 9 9 10 10 10 10 10 10 10 10 10 10 9 9 9 8 8 8 8 7 7 7 7 7
5 5 6 7 8 8 8 7 6 5 6 7 7 7 7 7 7 7 7 7 8 9 9 9 9 9 9 10 10 9 9 9 9 8 8 8 7 7 7 7 7 6 6 6
5 4 5 6 6 6 7 7 6 5 5 6 6 7 7 7 6 6 6 7 7 8 8 9 9 9 9 9 9 9 8 8 8 8 7 7 7 7 7 6 6 6 6 6
4 3 3 4 5 6 6 6 5 5 5 4 5 6 7 6 5 5 6 6 7 7 8 8 8 8 8 8 8 8 8 7 7 7 7 6 6 6 6 6 6 6 5 5
4 3 3 4 4 5 5 5 5 5 4 3 5 6 6 5 5 5 5 5 6 7 7 7 7 7 7 7 7 7 7 7 7 6 6 6 6 6 6 5 5 5 5 5
3 2 3 4 4 3 4 4 4 4 4 4 5 5 5 5 4 4 4 5 5 6 6 6 6 6 6 6 6 6 6 6 6 5 5 5 5 5 5 5 5 4 4 4
2 2 2 3 4 3 4 4 4 4 4 4 5 5 5 4 4 4 4 4 4 4 4 5 5 5 5 5 5 5 5 5 5 5 5 5 5 4 4 4 4 4 4 4
1 1 1 2 3 3 3 3 4 4 4 4 4 4 4 4 4 3 3 3 3 3 4 4 4 5 5 5 5 5 5 5 4 4 4 4 4 4 4 4 4 3 3 3
-0 0 1 2 2 3 2 2 3 3 3 4 4 4 3 3 3 3 3 3 3 3 3 3 4 4 4 4 4 4 4 4 4 4 4 4 4 3 3 3 3 3 3 3
-0 -0 -0 1 2 2 2 2 3 2 2 2 3 3 3 2 2 3 3 3 3 3 3 3 3 3 4 4 4 3 3 3 3 3 3 3 3 3 3 3 2 2 2 2
-0 -0 -0 -0 1 1 2 2 1 2 1 1 2 2 1 2 2 1 2 3 3 3 3 3 3 3 3 3 3 3 3 3 2 2 2 2 2 2 2 2 2 2 1 1
-0 -1 -1 -1 0 1 1 1 1 2 1 1 1 1 1 1 1 -0 1 2 2 2 2 2 2 2 2 2 2 2 2 2 2 2 2 2 2 2 1 1 1 1 1 1
-1 -1 -1 -1 -1 -0 -0 0 1 1 1 0 0 0 0 -0 0 0 1 1 1 1 1 1 2 2 2 2 2 2 2 1 1 1 1 1 1 1 1 1 0 0 0 -0
-2 -2 -2 -2 -1 -1 -1 -0 -0 -0 -0 -0 -0 0 -0 -0 -0 -0 -0 0 0 0 0 1 1 1 1 1 1 1 1 1 1 1 1 1 1 0 0 -0 -0 -0 -0 -1
-2 -2 -3 -2 -2 -2 -2 -1 -1 -0 -1 -1 -1 -0 -0 -1 -1 -1 -1 -1 -1 -1 -0 -0 -0 -0 0 0 0 0 0 0 0 0 0 0 -0 -0 -1 -1 -1 -1 -1 -2
-3 -3 -3 -3 -3 -3 -2 -2 -1 -1 -1 -1 -1 -1 -1 -1 -2 -2 -2 -2 -2 -1 -1 -1 -1 -1 -1 -1 -1 -1 -1 -1 -1 -1 -1 -1 -1 -1 -1 -1 -2 -2 -2 -2
-4 -3 -3 -3 -3 -3 -3 -3 -2 -2 -2 -2 -2 -2 -2 -2 -2 -2 -3 -2 -2 -2 -2 -2 -2 -2 -2 -2 -1 -1 -1 -1 -1 -1 -1 -1 -2 -2 -2 -2 -2 -3 -3 -3
-5 -5 -4 -3 -3 -4 -4 -3 -3 -2 -3 -3 -3 -3 -3 -3 -3 -3 -3 -3 -3 -3 -3 -3 -3 -2 -2 -2 -2 -2 -2 -2 -2 -2 -2 -2 -2 -3 -3 -3 -3 -3 -3 -3
Wind_Speed
5 5 11 14 12 6 7 7 6 6 5 6 10 11 10 7 6 7 8 9 10 10 8 8 9 10 10 10 10 11 10 9 8 6 5 4 3 2 1 2 4 4 4 4
4 10 11 8 8 5 5 5 4 3 2 4 6 9 8 7 8 10 11 11 11 8 6 8 9 10 11 12 11 11 11 10 8 6 5 3 3 2 1 1 2 3 3 3
10 6 8 9 8 9 8 8 7 4 1 1 1 5 7 6 6 7 8 9 10 12 12 11 10 10 10 11 12 11 10 10 8 7 5 4 3 3 2 1 0 1 2 2
7 5 8 10 11 10 9 8 7 6 4 3 3 4 7 6 5 7 8 8 9 10 11 11 11 11 11 11 10 10 10 9 8 8 8 8 5 3 2 2 1 1 1 1
7 6 9 12 11 10 6 5 6 5 5 2 2 4 7 3 6 8 8 9 8 9 11 12 12 13 11 10 10 9 9 8 7 7 8 7 4 2 1 1 1 0 1 1
5 4 6 7 6 7 5 5 5 4 3 4 8 7 7 6 9 7 7 7 8 8 9 9 9 9 8 8 8 9 9 7 7 7 7 7 6 4 3 2 1 0 1 1
4 3 3 4 6 4 6 7 3 1 2 7 5 6 8 6 6 8 9 8 7 7 8 8 9 10 9 9 9 9 10 8 7 7 6 6 6 6 6 4 3 2 1 2
6 6 7 4 7 8 8 10 8 7 7 4 3 7 6 5 3 4 5 6 7 6 7 8 9 10 10 11 10 10 10 8 7 7 5 4 5 4 3 3 3 3 2 2
6 5 2 3 4 9 8 7 6 5 3 2 5 5 5 1 1 2 4 5 6 7 7 7 8 9 10 10 10 10 10 8 7 6 5 4 4 3 3 3 2 2 2 2
4 4 2 2 3 1 6 8 5 5 6 5 4 5 5 5 5 4 4 5 5 5 6 6 7 7 8 8 8 8 8 8 7 6 5 4 3 3 3 2 2 2 2 2
2 3 1 2 5 7 5 5 5 5 5 6 4 6 4 6 6 6 5 5 6 6 6 6 6 6 7 7 7 7 7 6 5 5 4 3 2 2 2 2 3 2 2 2
2 3 3 2 2 2 4 6 6 6 5 4 4 4 3 1 2 4 5 4 5 5 5 5 6 7 6 6 6 6 5 5 5 4 4 3 2 2 1 2 2 2 3 3
3 4 4 1 2 1 2 3 4 4 4 5 5 4 4 4 4 3 4 4 4 5 6 6 6 6 6 5 5 5 4 4 4 4 3 2 2 1 2 2 2 2 3 3
2 3 5 8 6 6 5 6 5 5 5 5 6 4 1 2 3 3 3 4 4 5 6 6 5 4 4 4 4 4 3 3 3 3 3 2 2 2 2 2 2 2 3 3
3 2 2 2 2 4 4 7 8 7 7 7 6 5 4 3 4 3 4 5 6 5 5 5 5 4 4 4 3 3 2 2 2 3 2 2 2 2 1 1 2 2 2 3
2 2 1 1 1 2 1 3 6 6 5 5 4 3 2 1 4 4 4 5 5 4 4 4 4 4 4 3 3 2 1 1 2 2 2 1 1 1 1 1 1 2 3 3
1 2 2 1 1 3 2 4 5 4 4 6 7 6 3 3 4 4 4 4 4 3 3 3 3 3 3 3 3 2 1 1 2 1 1 1 1 1 1 2 2 2 3 3
3 2 2 1 2 5 4 2 3 5 2 3 3 4 5 4 3 3 3 4 3 2 3 2 2 2 2 2 2 2 2 2 2 1 1 0 1 1 2 2 2 3 3 3
4 4 2 2 2 2 4 2 0 3 2 1 4 3 3 4 5 3 3 3 3 2 3 2 2 2 2 2 2 3 2 2 2 1 1 1 1 2 2 2 3 3 3 3
3 3 3 2 3 4 4 4 3 3 1 2 3 4 4 5 3 2 1 3 4 4 4 3 3 3 3 2 2 3 2 2 1 1 1 2 2 1 2 3 3 3 3 4
2 2 2 3 2 3 4 5 1 4 4 2 1 3 4 3 3 3 3 4 4 4 4 4 4 4 2 2 3 3 2 1 1 1 2 2 2 2 2 2 3 3 4 4
3 2 2 3 2 4 4 2 2 2 0 2 2 3 5 5 6 5 5 4 4 5 5 5 4 3 3 3 3 3 2 2 2 2 2 2 2 2 3 3 3 3 3 4
1 2 3 3 3 2 2 2 1 1 2 2 2 4 6 6 5 5 4 4 4 4 4 4 4 4 4 4 2 2 2 2 2 2 2 2 3 3 3 3 3 3 3 3
2 1 2 1 1 2 3 3 5 4 3 3 4 5 5 6 5 5 4 4 4 4 4 3 4 4 4 4 4 2 2 2 2 2 2 2 2 3 3 3 3 3 3 4
2 0 2 1 0 2 4 4 4 5 6 6 6 5 5 6 5 4 4 3 3 3 3 3 3 3 3 4 4 4 3 2 2 2 2 3 2 3 3 4 3 4 4 5
2 0 2 3 3 2 1 2 3 5 5 5 5 5 5 5 5 4 3 2 2 2 3 3 3 3 3 4 4 4 4 3 2 2 2 2 3 3 3 4 5 7 7 9
Wind_Direction
171 165 198 200 195 185 170 176 200 220 217 182 209 230 240 234 211 205 204 200 198 204 200 181 172 163 157 156 157 159 156 156 148 144 143 140 145 141 122 117 121 118 108 98
153 219 210 186 190 203 198 196 215 255 235 191 217 244 253 238 220 209 202 203 201 195 180 176 168 162 163 163 162 162 162 160 160 161 155 146 143 142 149 106 101 109 99 91
192 215 181 180 194 201 220 207 199 203 350 17 152 283 254 250 225 219 212 203 195 188 184 179 171 170 166 166 169 168 167 162 159 149 128 110 83 69 65 69 61 66 92 91
220 222 179 186 201 188 221 215 194 183 159 236 172 247 263 235 235 223 220 207 198 192 184 179 174 172 174 176 171 164 163 160 156 150 148 149 150 159 190 188 193 357 85 87
213 197 186 196 201 179 196 178 179 185 171 199 197 201 269 231 228 229 221 210 200 190 182 181 180 178 176 171 165 161 155 155 154 154 156 154 152 159 146 129 129 335 348 11
218 207 194 194 184 174 147 96 65 58 103 227 210 190 255 224 212 214 217 207 196 186 179 178 176 167 161 157 154 154 153 154 155 154 155 157 158 151 141 150 172 246 304 310
208 220 213 162 146 162 147 129 103 88 217 238 204 196 243 241 216 203 199 199 191 182 171 165 163 162 159 156 157 156 155 155 156 155 159 164 165 162 168 178 188 204 259 288
174 207 205 188 175 176 181 158 165 182 203 246 192 217 252 254 233 201 187 177 165 165 168 166 168 166 163 160 158 157 158 156 156 158 164 163 162 166 176 185 192 206 226 244
176 208 201 198 170 149 160 186 168 141 150 184 235 258 293 268 214 159 151 147 161 165 165 163 161 161 159 159 160 161 158 154 158 161 157 157 161 168 178 188 192 213 232 250
155 177 208 190 112 125 165 154 128 144 162 210 239 235 226 218 210 192 169 161 155 151 151 151 152 152 153 154 152 150 151 155 156 153 159 165 173 180 178 177 201 223 236 249
129 151 166 149 181 180 150 158 155 155 170 168 205 249 225 209 201 187 184 166 152 143 147 147 142 138 133 130 135 139 144 141 144 149 149 145 163 169 170 192 215 225 237 246
147 138 166 219 296 224 175 169 154 168 210 186 177 254 318 189 153 153 158 151 139 136 129 127 128 123 122 127 134 136 139 143 153 152 147 149 152 152 180 220 234 231 238 247
147 138 130 113 324 315 181 177 163 145 137 164 174 244 4 59 76 98 119 119 119 116 110 106 114 123 128 131 133 134 138 146 148 145 145 145 158 178 213 240 248 245 247 259
125 155 185 197 205 181 195 202 181 155 176 192 208 207 321 74 100 97 110 108 111 112 117 114 113 116 122 127 131 130 125 134 141 145 152 170 196 209 223 239 252 255 253 260
98 155 195 249 221 176 190 196 190 191 184 183 201 195 219 205 170 154 133 114 101 96 101 108 111 112 110 106 106 112 120 126 138 145 165 200 219 224 226 241 260 276 279 280
63 133 111 333 166 148 160 206 196 194 181 185 171 241 256 140 113 109 124 126 122 120 115 106 107 114 119 120 117 106 112 133 136 149 177 201 213 234 242 252 268 290 294 296
52 117 130 217 236 99 249 236 202 181 182 178 205 219 164 123 134 155 159 141 141 135 120 119 124 133 139 145 139 130 130 106 113 133 148 195 215 249 265 275 286 282 283 297
152 114 121 136 108 193 242 288 174 163 177 173 171 172 167 164 140 102 114 132 132 122 112 107 104 103 110 113 110 108 92 91 91 84 59 328 282 284 293 283 274 278 287 287
170 139 117 137 175 260 304 325 174 178 246 268 176 175 147 119 87 45 37 81 116 114 104 104 103 96 82 77 89 94 76 70 67 47 8 338 317 301 297 287 281 289 292 294
105 115 124 131 159 214 255 302 306 123 246 304 179 185 169 134 149 225 7 60 70 79 81 78 76 75 64 45 82 92 77 65 42 341 326 329 323 310 292 286 292 299 295 292
90 97 142 154 194 257 287 310 40 153 223 304 170 164 154 156 170 152 106 76 78 79 79 76 75 69 50 36 81 88 71 22 314 329 347 346 341 320 301 304 309 305 306 305
143 138 159 146 179 249 320 43 135 203 13 59 80 98 106 104 101 99 92 84 78 73 71 70 68 50 31 37 76 73 29 333 343 1 357 350 341 333 338 328 319 315 310 307
144 174 168 175 195 294 351 87 38 64 74 53 78 94 111 108 103 95 85 82 75 72 65 61 69 47 24 22 54 59 347 341 354 5 355 341 336 333 328 317 312 316 313 305
331 26 125 119 8 357 29 37 37 50 62 62 88 99 104 110 109 99 91 82 73 64 60 58 58 46 20 12 22 24 349 353 13 6 340 332 331 326 322 317 308 305 303 301
290 25 108 117 285 25 15 25 47 57 62 65 66 74 97 109 105 101 96 88 80 67 51 50 52 38 9 6 8 360 355 10 8 343 327 323 319 309 310 310 298 296 282 286
334 182 169 206 215 182 254 2 61 71 63 64 73 67 67 95 105 96 88 77 71 59 50 44 35 24 0 358 359 353 352 358 352 333 324 317 314 310 307 307 313 313 309 311
Height
1455 1460 1460 1458 1461 1463 1466 1469 1471 1469 1465 1469 1470 1469 1467 1466 1467 1468 1469 1471 1473 1476 1480 1483 1486 1490 1493 1496 1499 1501 1504 1506 1509 1511 1512 1514 1515 1517 1518 1519 1519 1519 1519 1519
1457 1456 1453 1456 1459 1462 1464 1467 1469 1467 1465 1467 1469 1468 1465 1464 1464 1464 1465 1467 1469 1472 1476 1479 1482 1485 1488 1492 1495 1498 1501 1504 1506 1508 1510 1512 1514 1515 1516 1517 1517 1517 1517 1517
1451 1449 1450 1454 1457 1461 1463 1466 1467 1467 1466 1466 1469 1470 1466 1461 1460 1461 1461 1462 1465 1467 1471 1474 1478 1481 1485 1488 1491 1495 1498 1501 1504 1506 1509 1510 1512 1513 1514 1514 1515 1515 1515 1515
1449 1446 1448 1451 1453 1456 1461 1459 1462 1465 1471 1476 1473 1480 1466 1460 1459 1458 1458 1458 1460 1463 1467 1470 1473 1477 1481 1484 1488 1492 1495 1498 1501 1503 1505 1507 1508 1509 1510 1512 1512 1513 1513 1513
1446 1444 1445 1447 1448 1451 1455 1455 1460 1464 1470 1476 1474 1479 1467 1459 1458 1455 1454 1454 1455 1459 1462 1465 1469 1473 1477 1481 1485 1488 1492 1495 1498 1501 1503 1504 1506 1507 1509 1509 1510 1510 1510 1510
1442 1441 1442 1442 1445 1448 1452 1458 1463 1469 1473 1478 1472 1476 1467 1458 1451 1450 1450 1450 1451 1455 1459 1462 1466 1470 1474 1478 1482 1485 1489 1492 1495 1498 1500 1502 1503 1505 1506 1506 1507 1507 1507 1506
1443 1441 1440 1440 1445 1448 1451 1462 1477 1480 1483 1477 1467 1468 1459 1449 1445 1444 1445 1446 1448 1451 1455 1459 1462 1466 1470 1474 1478 1482 1485 1489 1492 1495 1497 1499 1501 1502 1503 1503 1503 1503 1503 1503
1444 1444 1439 1438 1440 1445 1449 1455 1469 1475 1478 1473 1466 1466 1454 1445 1442 1441 1442 1443 1446 1449 1452 1455 1459 1463 1466 1470 1474 1478 1482 1485 1489 1491 1494 1496 1498 1500 1500 1501 1501 1500 1500 1500
1440 1441 1436 1436 1436 1440 1448 1452 1454 1466 1471 1471 1468 1460 1450 1444 1443 1442 1441 1443 1444 1447 1450 1453 1456 1460 1464 1467 1471 1475 1479 1482 1485 1488 1491 1493 1495 1496 1497 1498 1498 1498 1497 1497
1435 1440 1437 1435 1435 1438 1441 1445 1456 1464 1468 1465 1460 1457 1452 1446 1444 1442 1442 1443 1444 1446 1449 1451 1454 1458 1461 1465 1469 1473 1477 1479 1482 1485 1488 1490 1491 1493 1494 1495 1495 1494 1494 1493
1434 1440 1441 1438 1438 1439 1442 1445 1449 1457 1461 1462 1462 1456 1442 1442 1441 1442 1442 1443 1444 1445 1448 1450 1453 1457 1460 1464 1467 1471 1474 1477 1480 1482 1485 1486 1488 1490 1491 1491 1491 1491 1490 1489
1434 1440 1443 1441 1439 1437 1437 1440 1446 1454 1460 1460 1459 1455 1439 1440 1440 1441 1442 1444 1445 1447 1449 1451 1454 1457 1460 1463 1466 1469 1472 1475 1477 1480 1482 1483 1485 1486 1487 1487 1488 1487 1486 1486
1433 1440 1444 1444 1446 1441 1440 1440 1442 1448 1456 1462 1460 1453 1442 1441 1442 1443 1444 1445 1446 1448 1449 1452 1454 1456 1459 1462 1465 1468 1470 1473 1475 1477 1479 1480 1482 1482 1483 1484 1484 1483 1483 1481
1431 1437 1438 1437 1435 1437 1440 1440 1441 1445 1452 1456 1451 1448 1445 1444 1444 1445 1446 1447 1447 1449 1450 1452 1454 1457 1459 1462 1464 1466 1469 1471 1473 1475 1476 1477 1478 1479 1480 1480 1480 1479 1478 1477
1431 1437 1436 1434 1432 1434 1434 1435 1437 1440 1443 1448 1446 1446 1445 1445 1445 1446 1447 1448 1449 1451 1452 1453 1455 1457 1459 1461 1463 1465 1467 1469 1470 1472 1473 1474 1475 1476 1476 1476 1476 1475 1475 1473
1433 1437 1437 1436 1432 1432 1435 1435 1435 1437 1440 1442 1444 1446 1444 1444 1445 1447 1448 1448 1450 1451 1453 1454 1455 1457 1458 1460 1462 1464 1465 1467 1468 1469 1470 1471 1472 1472 1473 1472 1472 1471 1470 1469
1436 1438 1440 1439 1436 1434 1441 1438 1437 1437 1438 1439 1441 1443 1443 1445 1446 1447 1448 1449 1450 1451 1453 1454 1455 1456 1458 1460 1461 1462 1464 1465 1466 1466 1467 1468 1469 1469 1469 1469 1468 1467 1466 1465
1437 1439 1442 1443 1440 1441 1440 1435 1434 1435 1438 1438 1438 1439 1441 1443 1445 1447 1448 1449 1450 1451 1452 1454 1455 1456 1457 1459 1460 1461 1462 1463 1463 1464 1465 1465 1465 1465 1465 1465 1464 1463 1462 1461
1433 1437 1443 1446 1445 1443 1438 1436 1436 1437 1439 1438 1438 1439 1441 1443 1445 1448 1449 1449 1450 1451 1452 1454 1455 1456 1457 1458 1459 1459 1460 1461 1461 1462 1462 1462 1462 1462 1462 1461 1460 1459 1458 1457
1434 1437 1443 1447 1447 1445 1439 1435 1434 1436 1441 1438 1437 1438 1440 1441 1448 1449 1448 1449 1450 1451 1452 1453 1454 1455 1456 1457 1457 1458 1458 1459 1459 1460 1460 1460 1460 1459 1458 1458 1457 1456 1455 1453
1438 1441 1444 1447 1449 1445 1439 1435 1434 1441 1441 1437 1436 1437 1438 1440 1443 1446 1447 1449 1450 1450 1451 1452 1453 1454 1454 1455 1456 1456 1457 1457 1458 1458 1458 1458 1457 1456 1456 1455 1454 1453 1451 1450
1440 1443 1446 1448 1449 1447 1438 1436 1439 1439 1437 1436 1437 1437 1438 1440 1442 1444 1446 1448 1449 1450 1451 1452 1452 1453 1453 1454 1455 1455 1455 1456 1456 1456 1455 1455 1454 1454 1453 1452 1450 1449 1448 1446
1441 1442 1443 1445 1446 1442 1439 1438 1438 1437 1437 1437 1437 1438 1439 1440 1442 1444 1446 1447 1448 1449 1450 1451 1451 1452 1452 1453 1453 1453 1454 1454 1454 1453 1453 1452 1452 1451 1450 1449 1447 1446 1444 1443
1441 1440 1442 1444 1443 1442 1440 1439 1438 1438 1438 1438 1438 1439 1440 1441 1442 1444 1446 1447 1448 1449 1450 1450 1451 1451 1451 1451 1452 1452 1452 1452 1451 1451 1450 1449 1449 1448 1447 1445 1444 1442 1441 1439
1443 1441 1442 1443 1443 1442 1441 1441 1440 1440 1439 1439 1440 1440 1441 1441 1443 1444 1445 1447 1448 1449 1449 1450 1450 1450 1450 1450 1450 1450 1450 1449 1449 1448 1447 1447 1446 1444 1443 1442 1441 1439 1438 1437
1443 1443 1443 1443 1442 1442 1442 1442 1441 1441 1440 1441 1441 1441 1443 1443 1443 1445 1446 1447 1448 1449 1449 1449 1449 1449 1449 1449 1449 1448 1448 1447 1446 1445 1444 1443 1442 1441 1440 1438 1437 1436 1435 1433